CMS-01

Last updated on Sun Apr 12 2026 00:02:55 GMT+0000 (Coordinated Universal Time)

1 47256U 20099A 26101.47406078 -.00000163 00000+0 00000+0 0 9999 2 47256 0.0238 127.1496 0005220 170.2859 155.9121 1.00272907 19529
UTC large
Height (km)
Speed (km/s)
/
Latitude / Longitude
Inclination (degrees)
Orbital Period (minutes)
Azimuth
Elevation
Range (km)
Doppler Factor

Next 0 passes for location: London (51.5072 / 0.1276)

Sorry there are no passes over London.
CMS-01